OSCAR 3 (OSCAR III) 1 01293U 65016F 10074.66631035 -.00000036 00000-0 11061-4 0 7525 2 01293 70.0756 304.6770 0018970 174.8601 185.2717 14.04764265297931 OSCAR 5 (AO-5) 1 04321U 70008B 10073.57551445 -.00000031 00000-0 10000-3 0 2938 2 04321 102.1180 94.7138 0027631 188.6646 171.3950 12.52159075834609 OSCAR 6 (AO-6) 1 06236U 72082B 10073.72734099 -.00000027 00000-0 10000-3 0 2827 2 06236 101.3922 81.1296 0004144 81.5252 278.6280 12.53080390711294 OSCAR 7 (AO-7) 1 07530U 74089B 10074.11111778 -.00000027 00000-0 10000-3 0 7275 2 07530 101.4084 93.6114 0012140 98.3805 261.8644 12.53577833616660 OSCAR 8 (AO-8) 1 10703U 78026B 10073.64348303 -.00000261 00000-0 -15200-3 0 7716 2 10703 98.7903 113.3775 0006702 135.7594 224.4102 13.98857341633832 PHASE 3B (AO-10) 1 14129U 83058B 10073.68812766 -.00000356 00000-0 10000-3 0 7229 2 14129 26.0319 105.4642 6074835 307.3225 11.3708 2.05874314173226 UOSAT 2 (UO-11) 1 14781U 84021B 10073.69531630 -.00000052 00000-0 27360-6 0 1994 2 14781 98.0681 125.0965 0008933 177.0729 183.0562 14.79776325397835 JAS-1 (FO-12) 1 16909U 86061B 10073.41083142 -.00000083 00000-0 10000-3 0 6959 2 16909 50.0156 51.1572 0011309 172.3666 187.7339 12.44453593 72625 UOSAT 3 (UO-14) 1 20437U 90005B 10074.38783622 .00000067 00000-0 41037-4 0 1614 2 20437 98.3798 27.5758 0011703 85.4246 274.8295 14.31567302 51855 UOSAT 4 (UO-15) 1 20438U 90005C 10074.53209608 -.00000121 00000-0 -30024-4 0 6576 2 20438 98.4367 22.1013 0010896 114.8770 245.3544 14.30461203 51262 PACSAT (AO-16) 1 20439U 90005D 10074.69013032 .00000018 00000-0 22136-4 0 8466 2 20439 98.3211 36.3286 0011967 84.1343 276.1189 14.31851911 52004 DOVE (DO-17) 1 20440U 90005E 10074.77312758 .00000045 00000-0 32110-4 0 5644 2 20440 98.2953 40.4593 0012006 78.6762 281.5766 14.32157169 52166 WEBERSAT (WO-18) 1 20441U 90005F 10073.91264231 .00000035 00000-0 28481-4 0 709 2 20441 98.3025 38.4316 0012572 84.6779 275.5844 14.31920040 51963 LUSAT (LO-19) 1 20442U 90005G 10074.42344299 -.00000031 00000-0 37193-5 0 7569 2 20442 98.2821 42.2556 0012934 80.7368 279.5267 14.32084465 52135 JAS-1B (FO-20) 1 20480U 90013C 10073.69756438 -.00000059 00000-0 -51870-4 0 3991 2 20480 99.0468 308.9496 0539593 278.0165 76.0081 12.83363759941603 INFORMATOR 1 & RS-14 1 21087U 91006A 10074.80588073 .00000055 00000-0 41845-4 0 5313 2 21087 82.9423 204.8077 0033686 245.8662 113.8973 13.75052351959743 COSMOS 2123 & RS-12/13 1 21089U 91007A 10074.49728425 .00000038 00000-0 24350-4 0 4141 2 21089 82.9177 65.2882 0027869 295.7766 64.0519 13.74492168958463 UOSAT 5 (UO-22) 1 21575U 91050B 10074.37086318 .00000017 00000-0 19446-4 0 7830 2 21575 98.4830 24.9993 0006494 289.1040 70.9444 14.39707229979723 KITSAT 1 (KO-23) 1 22077U 92052B 10074.06838693 -.00000037 00000-0 10000-3 0 9783 2 22077 66.0836 119.3280 0009972 215.4744 144.5617 12.86451788826360 ARSENE (AO-24) 1 22654U 93031B 10072.71404930 -.00000139 00000-0 10000-3 0 3546 2 22654 4.8365 332.1173 2854692 176.6974 185.6018 1.42205211 82954 EYESAT-1 (AO-27) 1 22825U 93061C 10073.92693642 .00000047 00000-0 35418-4 0 4799 2 22825 98.4752 24.3618 0008557 180.3272 179.7904 14.29289617858588 ITAMSAT (IO-26) 1 22826U 93061D 10073.86924250 .00000024 00000-0 26076-4 0 2158 2 22826 98.4685 24.9436 0008940 176.4936 183.6314 14.29544276858682 KITSAT 2 (KO-25) 1 22828U 93061F 10074.33697869 -.00000030 00000-0 49740-5 0 4138 2 22828 98.4633 25.2399 0010465 150.5849 209.5937 14.29840363827030 POSAT (PO-28) 1 22829U 93061G 10073.68558001 -.00000042 00000-0 62529-7 0 4405 2 22829 98.4583 25.7630 0010369 147.9881 212.1942 14.30239312858967 RADIO ROSTO (RS-15) 1 23439U 94085A 10074.37557449 -.00000039 00000-0 10000-3 0 2713 2 23439 64.8169 186.2679 0156731 1.0691 359.0538 11.27554797626696 JAS-2 (FO-29) 1 24278U 96046B 10074.18551219 -.00000064 00000-0 -29336-4 0 2679 2 24278 98.5187 276.2847 0351190 7.8264 352.8162 13.52947784670397 UNAMSAT-2 (MO-30) 1 24305U 96052B 10074.22772340 .00000029 00000-0 14511-4 0 3693 2 24305 82.9387 153.5908 0028847 218.1683 141.7433 13.73579606677888 TMSAT-1 (TO-31) 1 25396U 98043C 10074.26150717 .00000005 00000-0 20153-4 0 6470 2 25396 98.3143 92.8203 0003039 140.7967 219.3434 14.23797050606879 TECHSAT 1B (GO-32) 1 25397U 98043D 10074.45395999 .00000004 00000-0 19901-4 0 1366 2 25397 98.3158 87.0588 0001812 143.1212 217.0119 14.23173453606718 SEDSAT 1 (SO-33) 1 25509U 98061B 10074.67072455 .00000343 00000-0 54438-4 0 6695 2 25509 31.4340 317.3555 0354328 192.2639 166.9184 14.28298264594676 PAN SAT (PO-34) 1 25520U 98064B 10074.49441828 .00000790 00000-0 28749-4 0 4505 2 25520 28.4583 237.9007 0005102 23.1843 336.8990 15.17499173629904 ISS (ZARYA) 1 25544U 98067A 10074.85895192 .00023143 00000-0 16252-3 0 7797 2 25544 51.6479 349.7437 0007843 54.3816 18.7746 15.74028016648779 SUNSAT (SO-35) 1 25636U 99008C 10074.71741113 .00000027 00000-0 14529-4 0 5580 2 25636 96.4730 198.6619 0149563 82.0936 279.7210 14.43492284582272 UOSAT 12 (UO-36) 1 25693U 99021A 10074.25644536 -.00000049 00000-0 12760-4 0 1494 2 25693 64.5601 3.0483 0027384 322.7443 37.1763 14.78785732587926 OPAL (OO-38) 1 26063U 00004C 10073.72649853 -.00000011 00000-0 16686-4 0 7516 2 26063 100.2281 275.1139 0036697 219.4592 140.3924 14.35887599530778 SAUDISAT 1A (SO-41) 1 26545U 00057A 10073.79551172 .00000066 00000-0 27544-4 0 4827 2 26545 64.5595 3.6753 0050125 237.1692 122.4587 14.80662581511260 TIUNGSAT-1 (MO-46) 1 26548U 00057D 10074.25885143 .00000135 00000-0 34446-4 0 6390 2 26548 64.5566 321.6803 0042983 235.5454 124.1591 14.83453420512168 SAUDISAT 1B (SO-42) 1 26549U 00057E 10074.50810526 .00000158 00000-0 40044-4 0 5702 2 26549 64.5589 19.6217 0055175 238.1942 121.3809 14.79516976511009 PHASE 3D (AO-40) 1 26609U 00072B 10066.91848493 -.00000090 00000-0 10000-3 0 3630 2 26609 10.1846 340.7330 7960863 291.1909 6.2921 1.25586443 42931 PCSAT (NO-44) 1 26931U 01043C 10074.59654816 .00000158 00000-0 93744-4 0 4108 2 26931 67.0520 85.1041 0006511 264.0854 95.9505 14.29587781441378 SAPPHIRE (NO-45) 1 26932U 01043D 10074.48109391 -.00000060 00000-0 87022-5 0 4140 2 26932 67.0560 85.4396 0008327 261.6374 98.3808 14.29629396441402 IDEFIX & ARIANE 42P R/B 1 27422U 02021B 10073.74635987 .00000072 00000-0 45599-4 0 2877 2 27422 98.4927 151.3910 0012806 145.0684 215.1337 14.28536073408039 RUBIN-2 & SAFIR-M 1 27605U 02058A 10073.99942156 .00000058 00000-0 30359-4 0 1361 2 27605 64.5552 268.4350 0036237 122.7838 237.6793 14.72448745388810 SAUDISAT 1C (SO-50) 1 27607U 02058C 10073.88384013 .00000150 00000-0 45425-4 0 1276 2 27607 64.5584 282.9479 0036902 121.0404 239.4294 14.71510434388506 DTUSAT 1 27842U 03031C 10073.77347476 .00000040 00000-0 38713-4 0 7826 2 27842 98.7054 85.0051 0010331 64.5079 295.7155 14.21021492347774 CUTE-1 (CO-55) 1 27844U 03031E 10074.56752478 .00000066 00000-0 50931-4 0 8014 2 27844 98.7136 84.8815 0010908 80.2329 280.0092 14.20690755347797 AAU CUBESAT 1 27846U 03031G 10073.49142174 .00000043 00000-0 39861-4 0 7049 2 27846 98.7042 84.7176 0010367 63.7081 296.5185 14.21021193347738 CANX-1 1 27847U 03031H 10073.50370644 .00000036 00000-0 36721-4 0 7232 2 27847 98.7043 84.7168 0010337 63.7288 296.4957 14.21000172347681 CUBESAT XI-IV (CO-57) 1 27848U 03031J 10074.58349830 .00000046 00000-0 41601-4 0 7532 2 27848 98.7176 83.9747 0010654 84.3650 275.8749 14.20485419347755 MOZHAYETS 4 (RS-22) 1 27939U 03042A 10073.69860062 .00000196 00000-0 46593-4 0 344 2 27939 97.9074 303.1201 0013591 3.4100 356.7202 14.63391182345134 ECHO (AO-51) 1 28375U 04025K 10074.73558614 .00000035 00000-0 23135-4 0 6271 2 28375 98.0587 73.5701 0085076 21.3172 339.1528 14.40673658300052 HAMSAT (VO-52) 1 28650U 05017B 10073.65887020 .00000593 00000-0 81349-4 0 4554 2 28650 97.7034 130.7321 0026275 223.9261 135.9901 14.81700954262699 UWE-1 1 28892U 05043C 10074.26549080 .00000166 00000-0 44125-4 0 5794 2 28892 98.0260 321.1102 0016533 216.6944 143.3119 14.59832503233398 SSETI EXPRESS (XO-53) 1 28894U 05043E 10074.10794774 .00000056 00000-0 21152-4 0 7145 2 28894 98.0240 321.1494 0016736 219.9471 140.0508 14.59712756233379 CUBESAT XI-V (CO-58) 1 28895U 05043F 10074.21935531 .00000150 00000-0 40747-4 0 5364 2 28895 98.0287 321.7415 0017310 216.6598 143.3424 14.59858593233275 NCUBE-2 1 28897U 05043H 10074.24371847 .00000172 00000-0 45242-4 0 974 2 28897 98.0267 321.6627 0016297 217.7888 142.2167 14.60042906225577 PEHUENSAT 1 (PO-63) 1 29712U 07001D 10073.72555471 .00001463 00000-0 19544-3 0 1718 2 29712 97.7932 128.1961 0015186 113.1608 247.1188 14.80924505171502 CUTE-1.7+APD II (CO-65) 1 32785U 08021C 10074.35979888 .00000611 00000-0 84400-4 0 6282 2 32785 97.9055 140.5449 0014036 227.6381 132.3627 14.81604830101597 DELFI-C3 (DO-64) 1 32789U 08021G 10074.20262732 .00000801 00000-0 10747-3 0 6309 2 32789 97.9106 140.6983 0014798 228.4876 131.5066 14.82010078101588 YUBILEINY (RS-30) 1 32953U 08025A 10074.11760262 .00000010 00000-0 00000+0 0 5484 2 32953 82.4971 88.1787 0017800 311.3289 48.6264 12.43004169 82052 PRISM 1 33493U 09002B 10074.67706615 .00000624 00000-0 87499-4 0 2977 2 33493 98.0732 193.4393 0021333 84.0356 276.3289 14.80892552 61641 STARS 1 33498U 09002G 10073.99930342 .00000410 00000-0 74135-4 0 505 2 33498 98.0485 185.5812 0013059 177.0630 183.0633 14.71429227 61139 KKS-1 1 33499U 09002H 10074.79082949 .00000150 00000-0 32608-4 0 584 2 33499 98.0503 186.0195 0010288 171.4469 188.6918 14.70766114 61225 ANDE POLLUX SPHERE 1 35693U 09038E 10074.79776224 .00425158 10296-3 41449-3 0 3234 2 35693 51.6332 327.1133 0004986 201.3430 158.7282 16.10889034 36257 ANDE CASTOR SPHERE 1 35694U 09038F 10074.08911572 .00055375 00000-0 18336-3 0 2264 2 35694 51.6400 339.1551 0004233 164.8536 195.2544 15.89795612 36032 SUMBANDILA (SO-67) 1 35870U 09049F 10074.80445880 .00001288 00000-0 58720-4 0 5401 2 35870 97.3433 126.2584 0009632 33.4226 79.4339 15.22391305 27254 HOPE-1 (HO-68) 1 36122U 09072B 10074.15006687 -.00000045 00000-0 00000+0 0 1561 2 36122 100.4803 135.4942 0007422 188.5539 171.5441 13.16279937 11849